Terug naar catalogus

SL-12 DEB

ActiefLEO
NORAD 18766·DEBRIS·🇷🇺 Russia

Gelanceerd May 30, 1985 vanaf Baikonur Cosmodrome

Loading…

Volgende Passages (komende 24 uur)

TLE

VersSource: Space-Track

Epoch: Sep 14, 2026, 03:09 UTC

1 18766U 85042J   26257.13187462  .00002469  00000-0  71762-3 0  9998
2 18766  66.5615 147.0486 0043119 168.6614 349.9003 14.45444476  2743

Volg SL-12 DEB in realtime met AllMySat

Download on the App Store